GEFSGL_prec_meanprecacc_048.txt.gz
Total_Precipitation_Accumulation
0.49 0.48 0.48 0.46 0.41 0.39 0.38 0.36 0.34 0.34 0.34 0.35 0.41 0.44 0.51 0.60 0.74 0.92 0.99 0.93 0.78 0.71 0.70 0.75 0.86 0.94 1.10 1.03 0.89 0.77 0.69 0.62 0.54 0.44 0.31 0.20 0.20 0.21 0.23 0.15 0.08 0.05 0.04
0.60 0.58 0.52 0.47 0.44 0.44 0.43 0.39 0.35 0.29 0.27 0.34 0.37 0.42 0.46 0.46 0.55 0.68 0.81 0.87 0.81 0.71 0.64 0.67 0.77 0.87 1.04 1.13 1.10 0.97 0.87 0.79 0.69 0.61 0.47 0.35 0.29 0.27 0.29 0.27 0.18 0.11 0.09
0.77 0.69 0.60 0.53 0.47 0.45 0.40 0.36 0.38 0.34 0.36 0.43 0.46 0.49 0.49 0.48 0.45 0.47 0.52 0.58 0.62 0.60 0.56 0.53 0.54 0.63 0.84 1.02 1.08 1.07 1.06 0.98 0.89 0.78 0.62 0.51 0.41 0.31 0.28 0.29 0.25 0.21 0.18
1.00 0.91 0.80 0.67 0.55 0.52 0.45 0.39 0.38 0.37 0.39 0.41 0.42 0.47 0.56 0.55 0.51 0.49 0.45 0.39 0.34 0.35 0.39 0.43 0.43 0.46 0.57 0.67 0.78 0.94 1.15 1.14 1.07 0.98 0.79 0.59 0.48 0.37 0.30 0.28 0.29 0.28 0.27
1.05 1.05 0.91 0.73 0.59 0.53 0.49 0.41 0.38 0.37 0.36 0.38 0.40 0.42 0.48 0.54 0.59 0.59 0.44 0.32 0.26 0.22 0.20 0.22 0.26 0.34 0.41 0.43 0.49 0.69 0.95 1.10 1.08 1.03 0.93 0.74 0.51 0.41 0.30 0.26 0.30 0.36 0.34
0.98 0.96 0.75 0.57 0.46 0.41 0.41 0.39 0.34 0.32 0.35 0.39 0.39 0.39 0.46 0.48 0.57 0.53 0.35 0.28 0.26 0.25 0.22 0.16 0.17 0.21 0.24 0.27 0.31 0.39 0.55 0.73 0.92 1.03 1.01 0.86 0.68 0.54 0.46 0.39 0.35 0.35 0.37
0.64 0.60 0.50 0.40 0.37 0.40 0.42 0.36 0.34 0.33 0.33 0.35 0.36 0.36 0.39 0.48 0.44 0.28 0.25 0.23 0.26 0.26 0.24 0.23 0.21 0.16 0.16 0.18 0.25 0.28 0.29 0.33 0.48 0.71 0.85 0.91 0.94 0.75 0.60 0.49 0.41 0.41 0.43
0.40 0.39 0.34 0.30 0.31 0.34 0.35 0.34 0.39 0.43 0.41 0.40 0.42 0.42 0.40 0.43 0.35 0.22 0.22 0.22 0.27 0.28 0.27 0.26 0.29 0.26 0.24 0.25 0.24 0.25 0.26 0.27 0.36 0.36 0.49 0.75 0.83 0.80 0.69 0.65 0.67 0.60 0.49
0.12 0.13 0.12 0.11 0.13 0.14 0.15 0.22 0.32 0.39 0.41 0.43 0.46 0.46 0.40 0.36 0.32 0.21 0.20 0.24 0.28 0.31 0.28 0.25 0.27 0.28 0.37 0.37 0.30 0.38 0.43 0.40 0.48 0.50 0.50 0.52 0.53 0.52 0.54 0.54 0.53 0.51 0.49
0.01 0.01 0.01 0.01 0.02 0.03 0.05 0.08 0.15 0.19 0.23 0.31 0.33 0.36 0.38 0.36 0.40 0.25 0.22 0.25 0.30 0.34 0.32 0.32 0.40 0.37 0.42 0.37 0.27 0.40 0.45 0.43 0.42 0.46 0.44 0.38 0.33 0.32 0.34 0.36 0.46 0.46 0.42
0.00 0.00 0.00 0.00 0.00 0.01 0.01 0.03 0.06 0.07 0.12 0.15 0.20 0.25 0.32 0.37 0.43 0.37 0.35 0.34 0.33 0.39 0.40 0.37 0.36 0.43 0.29 0.24 0.21 0.26 0.39 0.35 0.33 0.40 0.42 0.38 0.32 0.30 0.29 0.30 0.38 0.43 0.45
0.00 0.00 0.00 0.00 0.00 0.00 0.01 0.01 0.02 0.02 0.05 0.08 0.10 0.14 0.20 0.25 0.31 0.34 0.30 0.31 0.33 0.40 0.45 0.38 0.39 0.43 0.26 0.20 0.19 0.24 0.29 0.27 0.29 0.36 0.35 0.33 0.29 0.24 0.24 0.24 0.24 0.26 0.29
0.00 0.00 0.00 0.00 0.00 0.01 0.01 0.01 0.02 0.03 0.04 0.06 0.08 0.14 0.19 0.25 0.26 0.21 0.18 0.18 0.21 0.31 0.35 0.38 0.40 0.35 0.26 0.20 0.18 0.22 0.24 0.25 0.34 0.36 0.32 0.28 0.24 0.23 0.21 0.19 0.21 0.22 0.25
0.00 0.00 0.00 0.01 0.01 0.01 0.02 0.03 0.03 0.03 0.05 0.08 0.13 0.18 0.21 0.24 0.25 0.22 0.22 0.22 0.19 0.24 0.26 0.26 0.28 0.26 0.27 0.25 0.21 0.22 0.24 0.25 0.29 0.29 0.26 0.24 0.23 0.23 0.24 0.24 0.27 0.29 0.32
0.00 0.00 0.00 0.00 0.01 0.01 0.01 0.01 0.02 0.02 0.04 0.10 0.16 0.21 0.21 0.20 0.14 0.13 0.23 0.32 0.36 0.42 0.48 0.42 0.40 0.36 0.33 0.30 0.27 0.24 0.24 0.26 0.24 0.22 0.21 0.20 0.19 0.19 0.20 0.20 0.22 0.24 0.27
0.00 0.00 0.00 0.00 0.01 0.01 0.01 0.00 0.01 0.02 0.05 0.07 0.07 0.08 0.10 0.09 0.08 0.10 0.16 0.25 0.33 0.43 0.56 0.59 0.59 0.58 0.54 0.46 0.35 0.27 0.21 0.20 0.22 0.22 0.23 0.23 0.20 0.19 0.18 0.16 0.15 0.16 0.18
0.00 0.00 0.00 0.00 0.01 0.01 0.02 0.04 0.05 0.04 0.02 0.01 0.01 0.02 0.08 0.15 0.19 0.22 0.24 0.27 0.30 0.40 0.57 0.65 0.64 0.61 0.54 0.48 0.41 0.32 0.23 0.19 0.20 0.20 0.19 0.20 0.20 0.19 0.17 0.13 0.10 0.10 0.11
0.00 0.00 0.00 0.03 0.05 0.05 0.05 0.09 0.13 0.17 0.14 0.07 0.01 0.01 0.04 0.11 0.15 0.18 0.24 0.36 0.38 0.44 0.51 0.52 0.50 0.39 0.31 0.26 0.22 0.17 0.13 0.11 0.12 0.11 0.10 0.10 0.11 0.13 0.14 0.13 0.12 0.11 0.11
0.00 0.01 0.03 0.07 0.09 0.07 0.08 0.13 0.14 0.10 0.08 0.07 0.04 0.02 0.01 0.04 0.06 0.08 0.16 0.33 0.34 0.28 0.23 0.19 0.17 0.14 0.10 0.09 0.08 0.07 0.06 0.05 0.04 0.03 0.03 0.03 0.04 0.05 0.08 0.09 0.11 0.13 0.16
0.00 0.00 0.02 0.07 0.09 0.07 0.07 0.07 0.07 0.05 0.03 0.04 0.04 0.04 0.04 0.05 0.07 0.07 0.09 0.13 0.12 0.08 0.06 0.06 0.05 0.04 0.04 0.04 0.03 0.03 0.03 0.03 0.03 0.02 0.02 0.02 0.02 0.03 0.05 0.08 0.11 0.13 0.14
0.00 0.00 0.00 0.03 0.05 0.04 0.03 0.03 0.03 0.02 0.02 0.03 0.02 0.01 0.03 0.07 0.08 0.07 0.06 0.05 0.04 0.03 0.04 0.05 0.03 0.02 0.02 0.02 0.03 0.03 0.03 0.03 0.03 0.03 0.03 0.03 0.03 0.03 0.05 0.08 0.12 0.14 0.15
0.00 0.01 0.02 0.04 0.04 0.02 0.02 0.03 0.05 0.04 0.02 0.03 0.03 0.02 0.03 0.06 0.07 0.05 0.05 0.05 0.03 0.03 0.04 0.06 0.06 0.04 0.03 0.03 0.03 0.02 0.03 0.03 0.03 0.03 0.03 0.03 0.03 0.03 0.04 0.06 0.09 0.13 0.16
0.00 0.00 0.01 0.03 0.03 0.01 0.01 0.03 0.04 0.04 0.02 0.02 0.03 0.04 0.04 0.06 0.06 0.06 0.07 0.06 0.07 0.07 0.06 0.06 0.08 0.07 0.04 0.03 0.03 0.03 0.03 0.03 0.03 0.04 0.04 0.04 0.04 0.05 0.05 0.05 0.06 0.08 0.11
0.00 0.00 0.01 0.02 0.02 0.01 0.02 0.03 0.04 0.03 0.03 0.04 0.05 0.05 0.05 0.05 0.04 0.04 0.04 0.05 0.07 0.08 0.06 0.04 0.04 0.03 0.02 0.03 0.03 0.03 0.05 0.05 0.03 0.03 0.04 0.05 0.06 0.07 0.09 0.12 0.15 0.16 0.17
0.00 0.00 0.01 0.02 0.02 0.01 0.01 0.02 0.03 0.03 0.03 0.04 0.04 0.03 0.03 0.04 0.03 0.02 0.04 0.04 0.05 0.06 0.04 0.04 0.04 0.02 0.01 0.01 0.02 0.03 0.06 0.07 0.07 0.06 0.05 0.05 0.07 0.10 0.14 0.21 0.26 0.28 0.29
0.00 0.00 0.00 0.01 0.01 0.01 0.01 0.02 0.03 0.02 0.02 0.02 0.02 0.02 0.03 0.03 0.02 0.01 0.02 0.02 0.03 0.04 0.03 0.03 0.04 0.02 0.01 0.01 0.02 0.04 0.07 0.07 0.06 0.05 0.02 0.02 0.04 0.07 0.08 0.11 0.15 0.19 0.23

GEFSGL_prec_meanprecacc_054.txt.gz
Total_Precipitation_Accumulation
0.63 0.61 0.58 0.53 0.47 0.44 0.43 0.41 0.38 0.38 0.38 0.39 0.45 0.47 0.54 0.63 0.78 0.97 1.05 1.02 0.93 0.91 0.91 0.96 1.05 1.11 1.27 1.18 1.03 0.89 0.79 0.71 0.62 0.51 0.36 0.24 0.24 0.24 0.25 0.17 0.10 0.07 0.06
0.75 0.72 0.64 0.55 0.50 0.50 0.49 0.42 0.38 0.32 0.30 0.36 0.40 0.44 0.48 0.49 0.59 0.75 0.89 0.95 0.92 0.84 0.79 0.82 0.95 1.06 1.24 1.31 1.25 1.09 0.98 0.87 0.79 0.70 0.54 0.39 0.32 0.29 0.30 0.29 0.21 0.14 0.13
0.86 0.77 0.68 0.60 0.52 0.49 0.43 0.38 0.41 0.36 0.38 0.45 0.50 0.53 0.53 0.53 0.52 0.55 0.61 0.69 0.73 0.70 0.66 0.64 0.66 0.76 0.97 1.15 1.20 1.18 1.15 1.06 0.97 0.86 0.68 0.54 0.43 0.32 0.29 0.30 0.26 0.23 0.20
1.03 0.94 0.83 0.71 0.59 0.54 0.47 0.42 0.40 0.39 0.41 0.43 0.44 0.50 0.59 0.58 0.55 0.54 0.52 0.49 0.46 0.47 0.51 0.54 0.55 0.57 0.69 0.79 0.89 1.03 1.23 1.22 1.13 1.04 0.83 0.61 0.49 0.38 0.32 0.31 0.31 0.29 0.29
1.07 1.06 0.92 0.73 0.60 0.54 0.49 0.42 0.39 0.38 0.38 0.40 0.42 0.44 0.50 0.56 0.61 0.62 0.48 0.39 0.35 0.31 0.30 0.31 0.36 0.44 0.51 0.54 0.60 0.80 1.06 1.18 1.14 1.07 0.97 0.76 0.53 0.43 0.31 0.27 0.32 0.37 0.35
0.99 0.96 0.75 0.57 0.46 0.41 0.41 0.39 0.34 0.33 0.36 0.40 0.39 0.40 0.48 0.50 0.59 0.56 0.39 0.33 0.32 0.32 0.30 0.24 0.25 0.28 0.30 0.33 0.37 0.45 0.63 0.81 0.98 1.08 1.05 0.89 0.70 0.55 0.47 0.40 0.37 0.38 0.39
0.64 0.60 0.50 0.40 0.37 0.40 0.42 0.36 0.34 0.33 0.33 0.36 0.36 0.37 0.40 0.50 0.47 0.32 0.30 0.28 0.31 0.32 0.30 0.30 0.30 0.24 0.25 0.24 0.30 0.32 0.32 0.38 0.53 0.75 0.89 0.93 0.96 0.76 0.61 0.51 0.44 0.44 0.45
0.40 0.40 0.34 0.30 0.31 0.34 0.35 0.34 0.39 0.43 0.41 0.40 0.42 0.42 0.40 0.44 0.38 0.27 0.27 0.27 0.32 0.34 0.33 0.33 0.39 0.35 0.32 0.35 0.31 0.32 0.31 0.29 0.39 0.38 0.50 0.76 0.84 0.81 0.70 0.66 0.69 0.60 0.50
0.12 0.13 0.12 0.12 0.13 0.14 0.16 0.22 0.32 0.39 0.41 0.43 0.46 0.46 0.41 0.37 0.34 0.25 0.24 0.29 0.34 0.38 0.35 0.32 0.35 0.37 0.45 0.47 0.40 0.48 0.49 0.42 0.50 0.52 0.52 0.54 0.55 0.53 0.56 0.56 0.55 0.54 0.51
0.01 0.01 0.01 0.01 0.02 0.03 0.05 0.08 0.15 0.19 0.24 0.31 0.33 0.36 0.38 0.36 0.41 0.28 0.26 0.28 0.32 0.37 0.37 0.37 0.47 0.44 0.47 0.44 0.36 0.52 0.55 0.48 0.44 0.47 0.45 0.39 0.34 0.34 0.36 0.38 0.49 0.51 0.46
0.00 0.00 0.00 0.00 0.00 0.01 0.01 0.03 0.06 0.07 0.12 0.16 0.20 0.25 0.32 0.37 0.44 0.38 0.38 0.36 0.36 0.43 0.43 0.40 0.40 0.48 0.32 0.28 0.29 0.35 0.48 0.41 0.37 0.42 0.42 0.39 0.33 0.31 0.30 0.31 0.39 0.46 0.48
0.00 0.00 0.00 0.00 0.00 0.00 0.01 0.01 0.02 0.03 0.05 0.08 0.10 0.14 0.20 0.25 0.31 0.35 0.32 0.33 0.34 0.42 0.47 0.40 0.41 0.46 0.29 0.23 0.23 0.30 0.35 0.33 0.34 0.39 0.37 0.35 0.31 0.26 0.25 0.25 0.25 0.26 0.29
0.00 0.00 0.00 0.00 0.01 0.01 0.01 0.01 0.02 0.03 0.04 0.06 0.08 0.14 0.19 0.26 0.27 0.22 0.19 0.19 0.22 0.33 0.37 0.40 0.42 0.37 0.29 0.23 0.23 0.27 0.29 0.30 0.40 0.40 0.34 0.30 0.26 0.24 0.21 0.20 0.21 0.23 0.25
0.00 0.00 0.00 0.01 0.01 0.01 0.02 0.03 0.03 0.04 0.05 0.08 0.13 0.18 0.22 0.24 0.26 0.23 0.23 0.23 0.21 0.26 0.28 0.28 0.31 0.29 0.30 0.29 0.25 0.26 0.28 0.31 0.34 0.32 0.27 0.25 0.24 0.24 0.25 0.25 0.27 0.29 0.32
0.00 0.00 0.00 0.00 0.01 0.01 0.01 0.01 0.02 0.02 0.04 0.10 0.17 0.21 0.21 0.20 0.15 0.14 0.23 0.32 0.37 0.43 0.49 0.43 0.41 0.37 0.35 0.32 0.29 0.27 0.29 0.31 0.28 0.23 0.22 0.20 0.19 0.20 0.20 0.20 0.22 0.25 0.27
0.00 0.00 0.00 0.00 0.01 0.01 0.01 0.00 0.01 0.02 0.05 0.07 0.07 0.09 0.10 0.09 0.08 0.10 0.16 0.26 0.33 0.43 0.57 0.60 0.60 0.58 0.54 0.47 0.37 0.29 0.23 0.22 0.23 0.23 0.24 0.23 0.21 0.19 0.18 0.16 0.15 0.16 0.18
0.00 0.00 0.00 0.00 0.01 0.01 0.02 0.04 0.05 0.04 0.02 0.01 0.01 0.02 0.08 0.15 0.19 0.23 0.24 0.27 0.30 0.40 0.58 0.65 0.65 0.61 0.55 0.49 0.43 0.33 0.24 0.20 0.21 0.20 0.20 0.20 0.21 0.20 0.18 0.13 0.10 0.10 0.11
0.00 0.00 0.00 0.03 0.05 0.05 0.05 0.09 0.13 0.17 0.14 0.07 0.01 0.01 0.04 0.11 0.15 0.18 0.24 0.36 0.38 0.44 0.51 0.52 0.51 0.39 0.31 0.26 0.22 0.18 0.13 0.12 0.13 0.11 0.11 0.10 0.12 0.13 0.14 0.13 0.12 0.11 0.11
0.00 0.01 0.03 0.07 0.09 0.07 0.08 0.13 0.14 0.10 0.08 0.07 0.04 0.02 0.01 0.04 0.06 0.08 0.16 0.33 0.34 0.28 0.23 0.19 0.17 0.14 0.10 0.09 0.08 0.08 0.06 0.05 0.04 0.03 0.03 0.03 0.04 0.05 0.08 0.09 0.11 0.13 0.16
0.00 0.00 0.02 0.07 0.09 0.07 0.07 0.07 0.07 0.05 0.03 0.04 0.04 0.04 0.04 0.05 0.07 0.07 0.09 0.13 0.12 0.08 0.06 0.06 0.05 0.04 0.04 0.04 0.03 0.03 0.03 0.03 0.03 0.02 0.02 0.02 0.02 0.03 0.05 0.08 0.11 0.13 0.14
0.00 0.00 0.00 0.03 0.05 0.04 0.03 0.03 0.03 0.02 0.02 0.03 0.02 0.01 0.03 0.07 0.08 0.07 0.06 0.05 0.04 0.03 0.04 0.05 0.03 0.02 0.02 0.02 0.03 0.03 0.03 0.03 0.03 0.03 0.03 0.03 0.03 0.03 0.05 0.08 0.12 0.14 0.15
0.00 0.01 0.02 0.04 0.04 0.02 0.02 0.03 0.05 0.04 0.02 0.03 0.03 0.02 0.03 0.06 0.07 0.05 0.05 0.05 0.03 0.03 0.04 0.06 0.06 0.04 0.03 0.03 0.03 0.02 0.03 0.03 0.03 0.03 0.03 0.03 0.03 0.03 0.04 0.06 0.09 0.13 0.16
0.00 0.00 0.01 0.03 0.03 0.01 0.01 0.03 0.04 0.04 0.02 0.02 0.03 0.04 0.04 0.06 0.06 0.06 0.07 0.06 0.07 0.07 0.06 0.06 0.08 0.07 0.04 0.03 0.03 0.03 0.03 0.03 0.03 0.04 0.04 0.04 0.04 0.05 0.05 0.05 0.06 0.08 0.11
0.00 0.00 0.01 0.02 0.02 0.01 0.02 0.03 0.04 0.03 0.03 0.04 0.05 0.05 0.05 0.05 0.04 0.04 0.04 0.05 0.07 0.08 0.06 0.04 0.04 0.03 0.02 0.03 0.03 0.03 0.05 0.05 0.03 0.03 0.04 0.05 0.06 0.07 0.09 0.12 0.15 0.16 0.17
0.00 0.00 0.01 0.02 0.02 0.01 0.01 0.02 0.03 0.03 0.03 0.04 0.04 0.03 0.03 0.04 0.03 0.02 0.04 0.04 0.05 0.06 0.04 0.04 0.04 0.02 0.01 0.01 0.02 0.03 0.06 0.07 0.07 0.06 0.05 0.05 0.07 0.10 0.14 0.21 0.26 0.28 0.29
0.00 0.00 0.00 0.01 0.01 0.01 0.01 0.02 0.03 0.02 0.02 0.02 0.02 0.02 0.03 0.03 0.02 0.01 0.02 0.02 0.03 0.04 0.03 0.03 0.04 0.02 0.01 0.01 0.02 0.04 0.07 0.07 0.06 0.05 0.02 0.02 0.04 0.07 0.08 0.11 0.15 0.19 0.23

GEFSGL_prec_meanprecacc_060.txt.gz
Total_Precipitation_Accumulation
0.75 0.72 0.69 0.65 0.60 0.55 0.52 0.50 0.47 0.47 0.48 0.50 0.56 0.60 0.65 0.73 0.88 1.08 1.18 1.15 1.06 1.02 1.01 1.06 1.16 1.21 1.37 1.28 1.12 0.99 0.89 0.82 0.73 0.62 0.46 0.31 0.30 0.29 0.29 0.20 0.13 0.10 0.09
0.85 0.83 0.73 0.63 0.57 0.56 0.54 0.47 0.45 0.40 0.39 0.44 0.48 0.52 0.56 0.56 0.66 0.81 0.96 1.02 1.00 0.91 0.87 0.91 1.05 1.19 1.38 1.45 1.40 1.24 1.11 0.99 0.90 0.84 0.67 0.50 0.40 0.35 0.37 0.35 0.27 0.21 0.20
0.90 0.81 0.72 0.64 0.55 0.51 0.45 0.41 0.45 0.43 0.44 0.50 0.54 0.59 0.59 0.59 0.58 0.60 0.65 0.73 0.78 0.75 0.72 0.72 0.75 0.86 1.09 1.27 1.34 1.34 1.33 1.23 1.12 0.99 0.80 0.66 0.54 0.40 0.37 0.38 0.32 0.31 0.26
1.06 0.96 0.85 0.73 0.61 0.55 0.48 0.43 0.40 0.41 0.43 0.46 0.47 0.52 0.61 0.61 0.58 0.58 0.56 0.53 0.51 0.52 0.55 0.61 0.64 0.67 0.80 0.92 1.01 1.17 1.37 1.35 1.26 1.16 0.94 0.72 0.59 0.46 0.42 0.43 0.41 0.41 0.37
1.08 1.07 0.93 0.74 0.61 0.54 0.49 0.42 0.40 0.39 0.39 0.41 0.44 0.46 0.52 0.57 0.62 0.64 0.51 0.43 0.40 0.37 0.35 0.39 0.45 0.54 0.61 0.65 0.70 0.93 1.18 1.29 1.25 1.18 1.08 0.88 0.63 0.51 0.41 0.39 0.44 0.50 0.46
0.99 0.97 0.75 0.58 0.46 0.41 0.41 0.39 0.35 0.33 0.36 0.40 0.40 0.41 0.50 0.51 0.60 0.57 0.42 0.37 0.37 0.38 0.37 0.32 0.33 0.36 0.38 0.41 0.46 0.56 0.75 0.93 1.11 1.21 1.17 1.00 0.79 0.62 0.54 0.48 0.46 0.49 0.48
0.64 0.60 0.51 0.40 0.38 0.41 0.42 0.36 0.34 0.33 0.34 0.36 0.37 0.38 0.41 0.51 0.49 0.34 0.33 0.32 0.37 0.39 0.38 0.39 0.36 0.31 0.32 0.32 0.38 0.41 0.41 0.47 0.64 0.87 1.00 1.01 1.01 0.81 0.66 0.56 0.50 0.53 0.51
0.40 0.40 0.34 0.30 0.31 0.34 0.35 0.34 0.39 0.44 0.41 0.41 0.43 0.43 0.41 0.45 0.40 0.28 0.29 0.30 0.37 0.40 0.40 0.42 0.48 0.44 0.41 0.45 0.42 0.44 0.39 0.36 0.48 0.48 0.59 0.82 0.88 0.85 0.74 0.71 0.75 0.66 0.54
0.12 0.13 0.12 0.12 0.13 0.14 0.16 0.22 0.33 0.40 0.41 0.44 0.46 0.46 0.41 0.37 0.34 0.25 0.25 0.32 0.39 0.43 0.41 0.40 0.45 0.46 0.55 0.56 0.52 0.62 0.60 0.49 0.55 0.58 0.59 0.59 0.59 0.58 0.61 0.62 0.61 0.62 0.57
0.01 0.01 0.01 0.02 0.02 0.03 0.06 0.08 0.15 0.19 0.24 0.32 0.33 0.36 0.39 0.37 0.42 0.29 0.28 0.32 0.38 0.44 0.45 0.45 0.57 0.54 0.56 0.53 0.45 0.63 0.65 0.55 0.48 0.49 0.46 0.41 0.35 0.35 0.39 0.46 0.60 0.63 0.56
0.00 0.00 0.00 0.00 0.00 0.01 0.02 0.03 0.06 0.08 0.12 0.16 0.21 0.27 0.33 0.38 0.45 0.40 0.42 0.42 0.43 0.52 0.52 0.48 0.46 0.53 0.38 0.37 0.37 0.42 0.57 0.51 0.44 0.48 0.45 0.40 0.35 0.32 0.31 0.33 0.44 0.54 0.56
0.00 0.00 0.00 0.00 0.00 0.01 0.01 0.02 0.02 0.03 0.06 0.09 0.11 0.15 0.21 0.26 0.32 0.36 0.36 0.38 0.40 0.49 0.52 0.44 0.44 0.49 0.33 0.28 0.29 0.36 0.42 0.46 0.43 0.47 0.43 0.39 0.34 0.28 0.25 0.26 0.26 0.28 0.31
0.00 0.00 0.00 0.00 0.01 0.01 0.01 0.01 0.02 0.03 0.05 0.06 0.09 0.15 0.21 0.27 0.28 0.23 0.20 0.21 0.25 0.37 0.40 0.42 0.44 0.40 0.32 0.26 0.26 0.31 0.34 0.39 0.49 0.48 0.39 0.33 0.28 0.25 0.22 0.20 0.22 0.23 0.25
0.00 0.00 0.00 0.01 0.01 0.01 0.02 0.03 0.03 0.04 0.05 0.09 0.13 0.18 0.22 0.25 0.26 0.23 0.25 0.26 0.24 0.28 0.30 0.30 0.32 0.31 0.33 0.30 0.27 0.30 0.34 0.38 0.43 0.38 0.31 0.27 0.25 0.25 0.26 0.26 0.29 0.30 0.32
0.00 0.00 0.00 0.00 0.01 0.01 0.01 0.01 0.02 0.03 0.04 0.10 0.17 0.21 0.21 0.21 0.15 0.14 0.24 0.34 0.39 0.45 0.51 0.45 0.43 0.40 0.37 0.34 0.31 0.30 0.33 0.35 0.31 0.27 0.25 0.21 0.20 0.20 0.21 0.22 0.24 0.26 0.28
0.00 0.00 0.00 0.00 0.01 0.01 0.01 0.01 0.01 0.02 0.05 0.07 0.07 0.09 0.10 0.09 0.09 0.10 0.16 0.26 0.34 0.43 0.58 0.62 0.62 0.61 0.56 0.48 0.39 0.31 0.26 0.25 0.26 0.26 0.26 0.24 0.22 0.20 0.19 0.17 0.17 0.17 0.18
0.00 0.00 0.00 0.00 0.01 0.01 0.02 0.04 0.05 0.04 0.02 0.01 0.01 0.02 0.08 0.15 0.19 0.23 0.24 0.27 0.30 0.41 0.59 0.66 0.66 0.63 0.56 0.49 0.43 0.34 0.27 0.23 0.23 0.22 0.21 0.21 0.22 0.21 0.19 0.14 0.11 0.10 0.12
0.00 0.00 0.00 0.03 0.05 0.05 0.05 0.09 0.13 0.17 0.14 0.07 0.01 0.01 0.04 0.11 0.15 0.18 0.24 0.36 0.38 0.44 0.52 0.53 0.52 0.40 0.31 0.27 0.23 0.19 0.15 0.13 0.14 0.13 0.12 0.11 0.12 0.13 0.14 0.13 0.12 0.11 0.11
0.00 0.01 0.03 0.07 0.09 0.07 0.08 0.13 0.14 0.10 0.08 0.07 0.04 0.02 0.01 0.04 0.06 0.08 0.16 0.34 0.35 0.29 0.23 0.19 0.17 0.15 0.11 0.09 0.09 0.09 0.07 0.06 0.05 0.04 0.03 0.03 0.04 0.06 0.08 0.10 0.11 0.13 0.16
0.00 0.00 0.02 0.07 0.09 0.07 0.07 0.07 0.07 0.05 0.03 0.04 0.04 0.04 0.04 0.05 0.07 0.07 0.09 0.13 0.12 0.08 0.06 0.07 0.06 0.05 0.04 0.04 0.04 0.04 0.03 0.03 0.03 0.02 0.02 0.02 0.02 0.03 0.05 0.08 0.11 0.13 0.15
0.00 0.00 0.00 0.03 0.05 0.04 0.03 0.03 0.03 0.02 0.02 0.03 0.02 0.01 0.03 0.07 0.08 0.07 0.06 0.05 0.04 0.03 0.04 0.05 0.03 0.02 0.02 0.02 0.03 0.03 0.03 0.03 0.03 0.03 0.03 0.03 0.03 0.03 0.05 0.08 0.12 0.14 0.15
0.00 0.01 0.02 0.04 0.04 0.02 0.02 0.03 0.05 0.04 0.02 0.03 0.03 0.02 0.03 0.06 0.07 0.05 0.05 0.05 0.03 0.03 0.04 0.06 0.06 0.04 0.03 0.03 0.03 0.02 0.03 0.03 0.03 0.03 0.03 0.03 0.03 0.03 0.04 0.06 0.09 0.13 0.16
0.00 0.00 0.01 0.03 0.03 0.01 0.01 0.03 0.04 0.04 0.02 0.02 0.03 0.04 0.04 0.06 0.06 0.06 0.07 0.06 0.07 0.07 0.06 0.06 0.08 0.07 0.04 0.03 0.03 0.03 0.03 0.03 0.03 0.04 0.04 0.04 0.04 0.05 0.05 0.05 0.06 0.08 0.11
0.00 0.00 0.01 0.02 0.02 0.01 0.02 0.03 0.04 0.03 0.03 0.04 0.05 0.05 0.05 0.05 0.04 0.04 0.04 0.05 0.07 0.08 0.06 0.04 0.04 0.03 0.02 0.03 0.03 0.03 0.05 0.05 0.03 0.03 0.04 0.05 0.06 0.07 0.09 0.12 0.15 0.16 0.17
0.00 0.00 0.01 0.02 0.02 0.01 0.01 0.02 0.03 0.03 0.03 0.04 0.04 0.03 0.03 0.04 0.03 0.02 0.04 0.04 0.05 0.06 0.04 0.04 0.04 0.02 0.01 0.01 0.02 0.03 0.06 0.07 0.07 0.06 0.05 0.05 0.07 0.10 0.14 0.21 0.26 0.28 0.29
0.00 0.00 0.00 0.01 0.01 0.01 0.01 0.02 0.03 0.02 0.02 0.02 0.02 0.02 0.03 0.03 0.02 0.01 0.02 0.02 0.03 0.04 0.03 0.03 0.04 0.02 0.01 0.01 0.02 0.04 0.07 0.07 0.06 0.05 0.02 0.02 0.04 0.07 0.08 0.11 0.15 0.19 0.23

GEFSGL_prec_meanprecacc_066.txt.gz
Total_Precipitation_Accumulation
0.77 0.76 0.75 0.71 0.66 0.62 0.62 0.60 0.57 0.59 0.60 0.64 0.72 0.74 0.80 0.88 1.02 1.21 1.31 1.29 1.17 1.15 1.16 1.20 1.30 1.34 1.50 1.43 1.28 1.13 1.00 0.89 0.79 0.67 0.51 0.36 0.35 0.35 0.36 0.26 0.18 0.15 0.13
0.88 0.86 0.77 0.67 0.62 0.61 0.59 0.51 0.48 0.45 0.44 0.52 0.57 0.60 0.63 0.66 0.78 0.94 1.07 1.12 1.08 0.99 0.95 1.00 1.15 1.29 1.48 1.56 1.51 1.35 1.22 1.08 0.97 0.90 0.73 0.56 0.45 0.41 0.43 0.43 0.35 0.29 0.27
0.92 0.82 0.74 0.67 0.57 0.53 0.47 0.43 0.47 0.46 0.48 0.54 0.59 0.63 0.64 0.64 0.63 0.66 0.73 0.82 0.84 0.80 0.77 0.77 0.81 0.92 1.16 1.34 1.42 1.43 1.43 1.34 1.22 1.08 0.88 0.73 0.61 0.48 0.44 0.45 0.40 0.39 0.35
1.06 0.96 0.85 0.73 0.62 0.56 0.49 0.44 0.42 0.42 0.45 0.47 0.48 0.54 0.63 0.63 0.60 0.59 0.58 0.58 0.55 0.56 0.60 0.67 0.71 0.73 0.85 0.96 1.07 1.24 1.45 1.44 1.36 1.25 1.03 0.79 0.66 0.53 0.49 0.51 0.50 0.49 0.45
1.08 1.07 0.93 0.74 0.61 0.54 0.49 0.42 0.40 0.39 0.39 0.41 0.44 0.47 0.53 0.58 0.63 0.65 0.52 0.44 0.42 0.41 0.41 0.45 0.51 0.59 0.65 0.68 0.74 0.97 1.24 1.37 1.33 1.26 1.14 0.94 0.69 0.56 0.46 0.45 0.51 0.58 0.54
0.99 0.97 0.75 0.58 0.46 0.41 0.41 0.39 0.35 0.33 0.36 0.40 0.40 0.42 0.51 0.52 0.61 0.58 0.43 0.38 0.39 0.41 0.41 0.37 0.36 0.39 0.42 0.44 0.50 0.60 0.78 0.98 1.17 1.28 1.23 1.05 0.84 0.67 0.60 0.54 0.53 0.56 0.58
0.64 0.60 0.51 0.40 0.38 0.41 0.42 0.36 0.34 0.33 0.34 0.36 0.37 0.38 0.42 0.52 0.51 0.36 0.34 0.33 0.39 0.42 0.43 0.44 0.40 0.34 0.37 0.36 0.41 0.44 0.44 0.50 0.68 0.92 1.05 1.06 1.07 0.86 0.71 0.61 0.56 0.59 0.61
0.40 0.40 0.34 0.30 0.31 0.34 0.35 0.34 0.39 0.44 0.41 0.41 0.43 0.43 0.42 0.46 0.40 0.29 0.30 0.32 0.38 0.42 0.46 0.50 0.55 0.49 0.46 0.50 0.46 0.47 0.43 0.40 0.53 0.53 0.64 0.88 0.94 0.90 0.79 0.76 0.80 0.72 0.60
0.12 0.13 0.12 0.12 0.13 0.14 0.16 0.22 0.33 0.40 0.42 0.44 0.47 0.47 0.42 0.38 0.35 0.27 0.27 0.34 0.41 0.46 0.45 0.48 0.54 0.54 0.63 0.63 0.58 0.69 0.65 0.53 0.62 0.65 0.66 0.66 0.65 0.64 0.67 0.68 0.69 0.69 0.63
0.01 0.01 0.01 0.02 0.02 0.03 0.06 0.08 0.15 0.19 0.24 0.32 0.34 0.37 0.40 0.38 0.44 0.31 0.30 0.35 0.41 0.49 0.50 0.50 0.63 0.62 0.64 0.60 0.52 0.70 0.71 0.60 0.52 0.53 0.51 0.45 0.40 0.40 0.46 0.54 0.68 0.69 0.61
0.00 0.00 0.00 0.00 0.00 0.01 0.02 0.03 0.06 0.08 0.12 0.16 0.21 0.27 0.34 0.39 0.46 0.42 0.44 0.45 0.46 0.54 0.55 0.53 0.50 0.58 0.45 0.46 0.45 0.47 0.64 0.59 0.51 0.52 0.48 0.42 0.37 0.35 0.36 0.38 0.50 0.61 0.61
0.00 0.00 0.00 0.00 0.00 0.01 0.01 0.02 0.02 0.03 0.06 0.09 0.11 0.15 0.21 0.27 0.33 0.38 0.37 0.40 0.42 0.51 0.56 0.48 0.48 0.54 0.39 0.36 0.36 0.42 0.51 0.54 0.48 0.50 0.45 0.42 0.36 0.29 0.27 0.29 0.31 0.32 0.34
0.00 0.00 0.00 0.00 0.01 0.01 0.01 0.01 0.02 0.03 0.05 0.06 0.09 0.15 0.21 0.28 0.29 0.24 0.22 0.22 0.26 0.39 0.43 0.45 0.46 0.43 0.36 0.31 0.32 0.37 0.42 0.46 0.54 0.50 0.41 0.35 0.30 0.26 0.23 0.22 0.23 0.25 0.27
0.00 0.00 0.00 0.01 0.01 0.01 0.02 0.03 0.03 0.04 0.05 0.09 0.13 0.18 0.23 0.26 0.27 0.25 0.26 0.27 0.25 0.30 0.31 0.31 0.33 0.34 0.37 0.35 0.32 0.35 0.39 0.44 0.46 0.41 0.33 0.28 0.26 0.25 0.27 0.27 0.29 0.30 0.32
0.00 0.00 0.00 0.00 0.01 0.01 0.01 0.01 0.02 0.03 0.04 0.10 0.17 0.21 0.21 0.21 0.15 0.14 0.24 0.34 0.40 0.45 0.51 0.45 0.44 0.42 0.40 0.36 0.34 0.33 0.36 0.38 0.34 0.28 0.26 0.23 0.21 0.21 0.21 0.22 0.25 0.26 0.28
0.00 0.00 0.00 0.00 0.01 0.01 0.01 0.01 0.01 0.02 0.05 0.07 0.07 0.09 0.10 0.09 0.09 0.10 0.16 0.26 0.34 0.44 0.59 0.62 0.63 0.63 0.58 0.49 0.40 0.32 0.27 0.27 0.27 0.27 0.26 0.25 0.22 0.21 0.20 0.18 0.17 0.17 0.18
0.00 0.00 0.00 0.00 0.01 0.01 0.02 0.04 0.05 0.04 0.02 0.01 0.01 0.02 0.08 0.15 0.19 0.23 0.24 0.27 0.30 0.42 0.60 0.67 0.67 0.64 0.56 0.50 0.44 0.35 0.27 0.24 0.24 0.23 0.22 0.22 0.22 0.21 0.19 0.14 0.11 0.10 0.12
0.00 0.00 0.00 0.03 0.05 0.05 0.05 0.09 0.13 0.17 0.14 0.07 0.01 0.01 0.04 0.11 0.15 0.18 0.24 0.36 0.38 0.45 0.52 0.53 0.52 0.40 0.31 0.27 0.23 0.19 0.15 0.15 0.15 0.13 0.12 0.11 0.12 0.14 0.14 0.14 0.13 0.11 0.11
0.00 0.01 0.03 0.07 0.09 0.07 0.08 0.13 0.14 0.10 0.08 0.07 0.04 0.02 0.01 0.04 0.06 0.08 0.16 0.34 0.35 0.29 0.24 0.19 0.18 0.15 0.11 0.09 0.09 0.09 0.07 0.06 0.05 0.04 0.03 0.03 0.04 0.06 0.08 0.10 0.11 0.13 0.16
0.00 0.00 0.02 0.07 0.09 0.07 0.07 0.07 0.07 0.05 0.03 0.04 0.04 0.04 0.04 0.05 0.07 0.07 0.09 0.13 0.12 0.08 0.07 0.07 0.06 0.05 0.04 0.04 0.04 0.04 0.03 0.03 0.03 0.02 0.02 0.02 0.02 0.03 0.05 0.08 0.11 0.13 0.15
0.00 0.00 0.00 0.03 0.05 0.04 0.03 0.03 0.03 0.02 0.02 0.03 0.02 0.01 0.03 0.07 0.08 0.07 0.06 0.05 0.04 0.03 0.04 0.05 0.04 0.02 0.02 0.02 0.03 0.03 0.03 0.03 0.03 0.03 0.03 0.03 0.03 0.03 0.05 0.08 0.12 0.14 0.15
0.00 0.01 0.02 0.04 0.04 0.02 0.02 0.03 0.05 0.04 0.02 0.03 0.03 0.02 0.03 0.06 0.07 0.05 0.05 0.05 0.03 0.03 0.04 0.06 0.06 0.04 0.03 0.03 0.03 0.02 0.03 0.03 0.03 0.03 0.03 0.03 0.03 0.03 0.04 0.06 0.09 0.13 0.16
0.00 0.00 0.01 0.03 0.03 0.01 0.01 0.03 0.04 0.04 0.02 0.02 0.03 0.04 0.04 0.06 0.06 0.06 0.07 0.06 0.07 0.07 0.06 0.06 0.08 0.07 0.04 0.03 0.03 0.03 0.03 0.03 0.03 0.04 0.04 0.04 0.04 0.05 0.05 0.05 0.06 0.08 0.11
0.00 0.00 0.01 0.02 0.02 0.01 0.02 0.03 0.04 0.03 0.03 0.04 0.05 0.05 0.05 0.05 0.04 0.04 0.04 0.05 0.07 0.08 0.06 0.04 0.04 0.03 0.02 0.03 0.03 0.03 0.05 0.05 0.03 0.03 0.04 0.05 0.06 0.07 0.09 0.12 0.15 0.16 0.17
0.00 0.00 0.01 0.02 0.02 0.01 0.01 0.02 0.03 0.03 0.03 0.04 0.04 0.03 0.03 0.04 0.03 0.02 0.04 0.04 0.05 0.06 0.04 0.04 0.04 0.02 0.01 0.01 0.02 0.03 0.06 0.07 0.07 0.06 0.05 0.05 0.07 0.10 0.14 0.21 0.26 0.28 0.29
0.00 0.00 0.00 0.01 0.01 0.01 0.01 0.02 0.03 0.02 0.02 0.02 0.02 0.02 0.03 0.03 0.02 0.01 0.02 0.02 0.03 0.04 0.03 0.03 0.04 0.02 0.01 0.01 0.02 0.04 0.07 0.07 0.06 0.05 0.02 0.02 0.04 0.07 0.08 0.11 0.15 0.19 0.23